Wappingers Falls, NY

8:38 AM EDT on August 30, 2016 (GMT -0400)
Dutchess County

Weather History for KPOU - January, 2014

Change the Weather History Date:

Tuesday, January 21, 2014

  Actual Average Record
Temperature  
Mean Temperature 19 °F 25 °F  
Max Temperature 28 °F 35 °F 60 °F (2006)
Min Temperature 10 °F 15 °F -30 °F (1961)
Degree Days  
Heating Degree Days 46 40  
Month to date heating degree days 788 832  
Since 1 July heating degree days 3066 3161  
Cooling Degree Days 0 0  
Month to date cooling degree days 0 0  
Year to date cooling degree days 0 0  
Moisture  
Dew Point 1 °F    
Average Humidity 55    
Maximum Humidity 70    
Minimum Humidity 37    
Precipitation  
Precipitation T in 0.10 in 2.02 in (1979)
Month to date precipitation 1.45 2.11  
Year to date precipitation 1.45 2.11  
Sea Level Pressure  
Sea Level Pressure 29.98 in    
Wind  
Wind Speed 11 mph (NNE)    
Max Wind Speed 17 mph    
Max Gust Speed 25 mph    
Visibility 6 miles    
Events Snow    
T = Trace of Precipitation, MM = Missing Value Source: NWS Daily Summary

Daily Weather History Graph

Daily Weather History Graph

Search for Another Location

Airport or City:

Trip Planner

Search our weather history database for the weather conditions in past years. The results will help you decide how hot, cold, wet, or windy it might be!

Date:

Astronomy

Jan. 21, 2014 Rise Set
Actual Time 7:16 AM EST 4:57 PM EST
Civil Twilight 6:46 AM EST 5:27 PM EST
Nautical Twilight 6:12 AM EST 6:01 PM EST
Astronomical Twilight 5:39 AM EST 6:34 PM EST
Moon 10:32 PM EST (1/21) 9:40 AM EST (1/21)
Length of Visible Light 10h 41m
Length of Day
9h 40m
Waning Gibbous, 75% of the Moon is Illuminated
Jan 21
Waning Gibbous
Jan 24
Last Quarter
Jan 30
New
Feb 6
First Quarter
Feb 14
Full

Hourly Weather History & Observations

Time (EST) Temp. Windchill Dew Point Humidity Pressure Visibility Wind Dir Wind Speed Gust Speed Precip Events Conditions
12:53 AM 26.1 °F 17.6 °F 9.0 °F 49% 29.93 in 10.0 mi NNE 8.1 mph - N/A   Overcast
1:53 AM 23.0 °F 13.1 °F 9.0 °F 55% 29.94 in 10.0 mi North 9.2 mph - N/A   Clear
2:53 AM 21.0 °F 12.4 °F 9.0 °F 60% 29.96 in 10.0 mi NNE 6.9 mph - N/A   Clear
3:53 AM 19.9 °F 8.6 °F 8.1 °F 60% 29.96 in 10.0 mi NNE 10.4 mph - N/A   Clear
4:53 AM 19.0 °F 10.0 °F 6.1 °F 57% 29.99 in 10.0 mi North 6.9 mph - N/A   Clear
5:53 AM 18.0 °F 5.4 °F 5.0 °F 57% 29.99 in 10.0 mi NNE 11.5 mph - N/A   Clear
6:53 AM 16.0 °F 5.3 °F 1.9 °F 54% 30.01 in 10.0 mi North 8.1 mph - N/A   Mostly Cloudy
7:53 AM 16.0 °F 3.6 °F 1.0 °F 52% 30.02 in 10.0 mi North 10.4 mph - N/A   Overcast
8:53 AM 16.0 °F 2.9 °F -0.0 °F 49% 30.01 in 10.0 mi NNE 11.5 mph - N/A   Overcast
9:53 AM 16.0 °F 2.9 °F -0.0 °F 49% 30.04 in 10.0 mi NNE 11.5 mph - N/A   Overcast
10:53 AM 16.0 °F 3.6 °F 1.9 °F 54% 30.06 in 4.0 mi NNE 10.4 mph - 0.00 in Snow Light Snow
11:21 AM 15.8 °F 2.7 °F 3.2 °F 58% 30.05 in 2.5 mi NNE 11.5 mph - 0.00 in Snow Light Snow
11:53 AM 16.0 °F 2.3 °F 1.0 °F 52% 30.04 in 2.0 mi North 12.7 mph - 0.00 in   Haze
12:00 PM 15.8 °F 2.1 °F -0.4 °F 49% 30.03 in 10.0 mi North 12.7 mph - 0.00 in   Overcast
12:53 PM 16.0 °F 3.6 °F 1.0 °F 52% 30.00 in 7.0 mi NNE 10.4 mph - 0.00 in Snow Light Snow
1:53 PM 17.1 °F 2.0 °F -4.0 °F 39% 29.95 in 10.0 mi NNE 16.1 mph 23.0 mph 0.00 in   Overcast
2:53 PM 15.1 °F -0.6 °F -7.1 °F 37% 29.93 in 10.0 mi NNE 16.1 mph - N/A   Overcast
3:53 PM 15.1 °F -0.6 °F -4.0 °F 43% 29.95 in 9.0 mi NNE 16.1 mph - N/A   Overcast
4:48 PM 12.2 °F -3.1 °F 1.4 °F 62% 29.96 in 2.5 mi North 13.8 mph - 0.00 in Snow Light Snow
4:53 PM 12.0 °F -2.7 °F 1.0 °F 61% 29.96 in 2.0 mi NNE 12.7 mph - 0.00 in Snow Light Snow
5:17 PM 12.2 °F -1.0 °F 1.4 °F 62% 29.97 in 1.8 mi North 10.4 mph 21.9 mph 0.00 in Snow Light Snow
5:40 PM 12.2 °F -1.8 °F 1.4 °F 62% 29.96 in 3.0 mi North 11.5 mph - 0.00 in Snow Light Snow
5:53 PM 12.0 °F -3.4 °F 1.0 °F 61% 29.96 in 2.0 mi North 13.8 mph 21.9 mph 0.00 in Snow Light Snow
6:12 PM 10.4 °F -1.5 °F 1.4 °F 67% 29.97 in 1.2 mi North 8.1 mph - 0.00 in Snow Light Snow
6:40 PM 12.2 °F 1.7 °F 1.4 °F 62% 29.97 in 3.0 mi North 6.9 mph - 0.00 in Snow Light Snow
6:53 PM 10.9 °F -4.7 °F -0.9 °F 59% 29.98 in 1.8 mi North 13.8 mph 24.2 mph 0.00 in Snow Light Snow
7:53 PM 10.0 °F -4.5 °F 1.9 °F 70% 29.97 in 1.0 mi North 11.5 mph - 0.00 in Snow Light Snow
8:35 PM 10.4 °F -4.8 °F -0.4 °F 62% 29.97 in 2.5 mi NNE 12.7 mph 25.3 mph 0.00 in Snow Light Snow
8:43 PM 10.4 °F -4.1 °F -2.2 °F 57% 29.97 in 4.0 mi North 11.5 mph 21.9 mph 0.00 in Snow Light Snow
8:51 PM 10.4 °F -5.4 °F -2.2 °F 57% 29.97 in 5.0 mi North 13.8 mph 19.6 mph 0.00 in Snow Light Snow
8:53 PM 10.9 °F -4.7 °F -2.9 °F 54% 29.98 in 6.0 mi NNE 13.8 mph 20.7 mph 0.00 in Snow Light Snow
9:53 PM 10.9 °F -4.7 °F -7.1 °F 44% 29.96 in 10.0 mi North 13.8 mph 21.9 mph 0.00 in   Overcast
10:53 PM 10.0 °F -7.1 °F -6.0 °F 48% 29.94 in 10.0 mi North 16.1 mph 24.2 mph N/A   Overcast
11:53 PM 10.0 °F -7.6 °F -7.1 °F 46% 29.91 in 10.0 mi North 17.3 mph 23.0 mph N/A   Overcast